Year,Month,Day,Hour,Minute,Value (Times are PST for temperature in C)
2017,07,15,00,00,15.20
2017,07,15,00,01,15.20
2017,07,15,00,02,15.20
2017,07,15,00,03,15.10
2017,07,15,00,04,15.10
2017,07,15,00,05,15.10
2017,07,15,00,06,15.10
2017,07,15,00,07,15.00
2017,07,15,00,08,15.00
2017,07,15,00,09,15.00
2017,07,15,00,10,15.00
2017,07,15,00,11,14.90
2017,07,15,00,12,14.90
2017,07,15,00,13,14.90
2017,07,15,00,14,14.90
2017,07,15,00,15,14.90
2017,07,15,00,16,14.90
2017,07,15,00,17,14.80
2017,07,15,00,18,14.80
2017,07,15,00,19,14.80
2017,07,15,00,20,14.80
2017,07,15,00,21,14.80
2017,07,15,00,22,14.70
2017,07,15,00,23,14.70
2017,07,15,00,24,14.70
2017,07,15,00,25,14.70
2017,07,15,00,26,14.70
2017,07,15,00,27,14.70
2017,07,15,00,28,14.70
2017,07,15,00,29,14.70
2017,07,15,00,30,14.70
2017,07,15,00,31,14.60
2017,07,15,00,32,14.60
2017,07,15,00,33,14.60
2017,07,15,00,34,14.60
2017,07,15,00,35,14.60
2017,07,15,00,36,14.60
2017,07,15,00,37,14.60
2017,07,15,00,38,14.60
2017,07,15,00,39,14.60
2017,07,15,00,40,14.60
2017,07,15,00,41,14.60
2017,07,15,00,42,14.60
2017,07,15,00,43,14.50
2017,07,15,00,44,14.50
2017,07,15,00,45,14.60
2017,07,15,00,46,14.60
2017,07,15,00,47,14.60
2017,07,15,00,48,14.50
2017,07,15,00,49,14.60
2017,07,15,00,50,14.60
2017,07,15,00,51,14.60
2017,07,15,00,52,14.60
2017,07,15,00,53,14.70
2017,07,15,00,54,14.70
2017,07,15,00,55,14.70
2017,07,15,00,56,14.70
2017,07,15,00,57,14.80
2017,07,15,00,58,14.80
2017,07,15,00,59,14.80
2017,07,15,01,00,14.80
2017,07,15,01,01,14.80
2017,07,15,01,02,14.80
2017,07,15,01,03,14.80
2017,07,15,01,04,14.80
2017,07,15,01,05,14.80
2017,07,15,01,06,14.80
2017,07,15,01,07,14.80
2017,07,15,01,08,14.80
2017,07,15,01,09,14.80
2017,07,15,01,10,14.80
2017,07,15,01,11,14.80
2017,07,15,01,12,14.70
2017,07,15,01,13,14.70
2017,07,15,01,14,14.70
2017,07,15,01,15,14.70
2017,07,15,01,16,14.70
2017,07,15,01,17,14.70
2017,07,15,01,18,14.60
2017,07,15,01,19,14.60
2017,07,15,01,20,14.60
2017,07,15,01,21,14.50
2017,07,15,01,22,14.50
2017,07,15,01,23,14.40
2017,07,15,01,24,14.40
2017,07,15,01,25,14.30
2017,07,15,01,26,14.30
2017,07,15,01,27,14.30
2017,07,15,01,28,14.20
2017,07,15,01,29,14.20
2017,07,15,01,30,14.20
2017,07,15,01,31,14.20
2017,07,15,01,32,14.20
2017,07,15,01,33,14.20
2017,07,15,01,34,14.20
2017,07,15,01,35,14.10
2017,07,15,01,36,14.10
2017,07,15,01,37,14.00
2017,07,15,01,38,14.00
2017,07,15,01,39,13.90
2017,07,15,01,40,13.90
2017,07,15,01,41,13.80
2017,07,15,01,42,13.80
2017,07,15,01,43,13.80
2017,07,15,01,44,13.70
2017,07,15,01,45,13.70
2017,07,15,01,46,13.70
2017,07,15,01,47,13.70
2017,07,15,01,48,13.60
2017,07,15,01,49,13.60
2017,07,15,01,50,13.60
2017,07,15,01,51,13.50
2017,07,15,01,52,13.50
2017,07,15,01,53,13.50
2017,07,15,01,54,13.50
2017,07,15,01,55,13.50
2017,07,15,01,56,13.50
2017,07,15,01,57,13.40
2017,07,15,01,58,13.40
2017,07,15,01,59,13.40
2017,07,15,02,00,13.40
2017,07,15,02,01,13.40
2017,07,15,02,02,13.40
2017,07,15,02,03,13.40
2017,07,15,02,04,13.40
2017,07,15,02,05,13.30
2017,07,15,02,06,13.30
2017,07,15,02,07,13.30
2017,07,15,02,08,13.30
2017,07,15,02,09,13.30
2017,07,15,02,10,13.30
2017,07,15,02,11,13.30
2017,07,15,02,12,13.30
2017,07,15,02,13,13.30
2017,07,15,02,14,13.30
2017,07,15,02,15,13.20
2017,07,15,02,16,13.20
2017,07,15,02,17,13.20
2017,07,15,02,18,13.20
2017,07,15,02,19,13.20
2017,07,15,02,20,13.10
2017,07,15,02,21,13.10
2017,07,15,02,22,13.10
2017,07,15,02,23,13.10
2017,07,15,02,24,13.10
2017,07,15,02,25,13.00
2017,07,15,02,26,13.00
2017,07,15,02,27,13.00
2017,07,15,02,28,12.90
2017,07,15,02,29,12.90
2017,07,15,02,30,12.90
2017,07,15,02,31,12.90
2017,07,15,02,32,12.90
2017,07,15,02,33,12.80
2017,07,15,02,34,12.80
2017,07,15,02,35,12.80
2017,07,15,02,36,12.80
2017,07,15,02,37,12.80
2017,07,15,02,38,12.80
2017,07,15,02,39,12.80
2017,07,15,02,40,12.80
2017,07,15,02,41,12.80
2017,07,15,02,42,12.80
2017,07,15,02,43,12.80
2017,07,15,02,44,12.80
2017,07,15,02,45,12.80
2017,07,15,02,46,12.80
2017,07,15,02,47,12.80
2017,07,15,02,48,12.80
2017,07,15,02,49,12.80
2017,07,15,02,50,12.80
2017,07,15,02,51,12.70
2017,07,15,02,52,12.70
2017,07,15,02,53,12.70
2017,07,15,02,54,12.70
2017,07,15,02,55,12.70
2017,07,15,02,56,12.70
2017,07,15,02,57,12.70
2017,07,15,02,58,12.70
2017,07,15,02,59,12.60
2017,07,15,03,00,12.60
2017,07,15,03,01,12.60
2017,07,15,03,02,12.60
2017,07,15,03,03,12.50
2017,07,15,03,04,12.50
2017,07,15,03,05,12.50
2017,07,15,03,06,12.50
2017,07,15,03,07,12.50
2017,07,15,03,08,12.40
2017,07,15,03,09,12.40
2017,07,15,03,10,12.40
2017,07,15,03,11,12.40
2017,07,15,03,12,12.40
2017,07,15,03,13,12.40
2017,07,15,03,14,12.40
2017,07,15,03,15,12.40
2017,07,15,03,16,12.40
2017,07,15,03,17,12.40
2017,07,15,03,18,12.40
2017,07,15,03,19,12.40
2017,07,15,03,20,12.40
2017,07,15,03,21,12.40
2017,07,15,03,22,12.40
2017,07,15,03,23,12.40
2017,07,15,03,24,12.40
2017,07,15,03,25,12.40
2017,07,15,03,26,12.40
2017,07,15,03,27,12.30
2017,07,15,03,28,12.30
2017,07,15,03,29,12.30
2017,07,15,03,30,12.30
2017,07,15,03,31,12.30
2017,07,15,03,32,12.30
2017,07,15,03,33,12.30
2017,07,15,03,34,12.20
2017,07,15,03,35,12.20
2017,07,15,03,36,12.20
2017,07,15,03,37,12.20
2017,07,15,03,38,12.20
2017,07,15,03,39,12.20
2017,07,15,03,40,12.20
2017,07,15,03,41,12.20
2017,07,15,03,42,12.20
2017,07,15,03,43,12.10
2017,07,15,03,44,12.10
2017,07,15,03,45,12.10
2017,07,15,03,46,12.10
2017,07,15,03,47,12.10
2017,07,15,03,48,12.10
2017,07,15,03,49,12.00
2017,07,15,03,50,12.00
2017,07,15,03,51,12.00
2017,07,15,03,52,11.90
2017,07,15,03,53,11.90
2017,07,15,03,54,11.90
2017,07,15,03,55,11.80
2017,07,15,03,56,11.80
2017,07,15,03,57,11.90
2017,07,15,03,58,11.90
2017,07,15,03,59,11.90
2017,07,15,04,00,11.90
2017,07,15,04,01,11.90
2017,07,15,04,02,11.90
2017,07,15,04,03,11.90
2017,07,15,04,04,11.90
2017,07,15,04,05,12.00
2017,07,15,04,06,12.00
2017,07,15,04,07,12.00
2017,07,15,04,08,12.00
2017,07,15,04,09,12.10
2017,07,15,04,10,12.10
2017,07,15,04,11,12.10
2017,07,15,04,12,12.10
2017,07,15,04,13,12.10
2017,07,15,04,14,12.10
2017,07,15,04,15,12.10
2017,07,15,04,16,12.10
2017,07,15,04,17,12.10
2017,07,15,04,18,12.10
2017,07,15,04,19,12.10
2017,07,15,04,20,12.10
2017,07,15,04,21,12.00
2017,07,15,04,22,12.00
2017,07,15,04,23,12.00
2017,07,15,04,24,12.00
2017,07,15,04,25,11.90
2017,07,15,04,26,11.90
2017,07,15,04,27,11.90
2017,07,15,04,28,11.90
2017,07,15,04,29,11.90
2017,07,15,04,30,11.90
2017,07,15,04,31,11.90
2017,07,15,04,32,11.80
2017,07,15,04,33,11.80
2017,07,15,04,34,11.80
2017,07,15,04,35,11.80
2017,07,15,04,36,11.80
2017,07,15,04,37,11.70
2017,07,15,04,38,11.70
2017,07,15,04,39,11.70
2017,07,15,04,40,11.70
2017,07,15,04,41,11.70
2017,07,15,04,42,11.70
2017,07,15,04,43,11.70
2017,07,15,04,44,11.60
2017,07,15,04,45,11.60
2017,07,15,04,46,11.60
2017,07,15,04,47,11.60
2017,07,15,04,48,11.60
2017,07,15,04,49,11.50
2017,07,15,04,50,11.50
2017,07,15,04,51,11.40
2017,07,15,04,52,11.40
2017,07,15,04,53,11.40
2017,07,15,04,54,11.40
2017,07,15,04,55,11.30
2017,07,15,04,56,11.30
2017,07,15,04,57,11.30
2017,07,15,04,58,11.20
2017,07,15,04,59,11.20
2017,07,15,05,00,11.20
2017,07,15,05,01,11.20
2017,07,15,05,02,11.20
2017,07,15,05,03,11.10
2017,07,15,05,04,11.10
2017,07,15,05,05,11.10
2017,07,15,05,06,11.10
2017,07,15,05,07,11.10
2017,07,15,05,08,11.10
2017,07,15,05,09,11.10
2017,07,15,05,10,11.10
2017,07,15,05,11,11.20
2017,07,15,05,12,11.20
2017,07,15,05,13,11.20
2017,07,15,05,14,11.20
2017,07,15,05,15,11.20
2017,07,15,05,16,11.20
2017,07,15,05,17,11.20
2017,07,15,05,18,11.20
2017,07,15,05,19,11.20
2017,07,15,05,20,11.20
2017,07,15,05,21,11.20
2017,07,15,05,22,11.10
2017,07,15,05,23,11.10
2017,07,15,05,24,11.10
2017,07,15,05,25,11.10
2017,07,15,05,26,11.10
2017,07,15,05,27,11.10
2017,07,15,05,28,11.10
2017,07,15,05,29,11.10
2017,07,15,05,30,11.10
2017,07,15,05,31,11.10
2017,07,15,05,32,11.10
2017,07,15,05,33,11.10
2017,07,15,05,34,11.10
2017,07,15,05,35,11.10
2017,07,15,05,36,11.10
2017,07,15,05,37,11.10
2017,07,15,05,38,11.00
2017,07,15,05,39,11.00
2017,07,15,05,40,11.00
2017,07,15,05,41,10.90
2017,07,15,05,42,10.90
2017,07,15,05,43,10.90
2017,07,15,05,44,10.90
2017,07,15,05,45,10.90
2017,07,15,05,46,10.90
2017,07,15,05,47,10.90
2017,07,15,05,48,10.90
2017,07,15,05,49,10.90
2017,07,15,05,50,10.90
2017,07,15,05,51,10.90
2017,07,15,05,52,10.90
2017,07,15,05,53,10.90
2017,07,15,05,54,10.90
2017,07,15,05,55,10.90
2017,07,15,05,56,10.90
2017,07,15,05,57,10.90
2017,07,15,05,58,10.90
2017,07,15,05,59,10.90
2017,07,15,06,00,10.90
2017,07,15,06,01,10.90
2017,07,15,06,02,10.80
2017,07,15,06,03,10.80
2017,07,15,06,04,10.90
2017,07,15,06,05,10.80
2017,07,15,06,06,10.80
2017,07,15,06,07,10.80
2017,07,15,06,08,10.80
2017,07,15,06,09,10.80
2017,07,15,06,10,10.80
2017,07,15,06,11,10.80
2017,07,15,06,12,10.80
2017,07,15,06,13,10.80
2017,07,15,06,14,10.90
2017,07,15,06,15,10.90
2017,07,15,06,16,10.90
2017,07,15,06,17,11.00
2017,07,15,06,18,11.00
2017,07,15,06,19,11.00
2017,07,15,06,20,11.10
2017,07,15,06,21,11.10
2017,07,15,06,22,11.10
2017,07,15,06,23,11.20
2017,07,15,06,24,11.20
2017,07,15,06,25,11.30
2017,07,15,06,26,11.30
2017,07,15,06,27,11.30
2017,07,15,06,28,11.30
2017,07,15,06,29,11.40
2017,07,15,06,30,11.40
2017,07,15,06,31,11.40
2017,07,15,06,32,11.40
2017,07,15,06,33,11.50
2017,07,15,06,34,11.50
2017,07,15,06,35,11.60
2017,07,15,06,36,11.60
2017,07,15,06,37,11.60
2017,07,15,06,38,11.60
2017,07,15,06,39,11.70
2017,07,15,06,40,11.70
2017,07,15,06,41,11.80
2017,07,15,06,42,11.80
2017,07,15,06,43,11.90
2017,07,15,06,44,12.00
2017,07,15,06,45,12.00
2017,07,15,06,46,12.10
2017,07,15,06,47,12.20
2017,07,15,06,48,12.20
2017,07,15,06,49,12.20
2017,07,15,06,50,12.20
2017,07,15,06,51,12.20
2017,07,15,06,52,12.20
2017,07,15,06,53,12.20
2017,07,15,06,54,12.20
2017,07,15,06,55,12.20
2017,07,15,06,56,12.30
2017,07,15,06,57,12.30
2017,07,15,06,58,12.30
2017,07,15,06,59,12.40
2017,07,15,07,00,12.50
2017,07,15,07,01,12.60
2017,07,15,07,02,12.70
2017,07,15,07,03,12.70
2017,07,15,07,04,12.80
2017,07,15,07,05,12.90
2017,07,15,07,06,13.00
2017,07,15,07,07,13.10
2017,07,15,07,08,13.20
2017,07,15,07,09,13.20
2017,07,15,07,10,13.30
2017,07,15,07,11,13.40
2017,07,15,07,12,13.50
2017,07,15,07,13,13.60
2017,07,15,07,14,13.70
2017,07,15,07,15,13.80
2017,07,15,07,16,13.90
2017,07,15,07,17,14.00
2017,07,15,07,18,14.00
2017,07,15,07,19,14.10
2017,07,15,07,20,14.20
2017,07,15,07,21,14.20
2017,07,15,07,22,14.30
2017,07,15,07,23,14.30
2017,07,15,07,24,14.40
2017,07,15,07,25,14.40
2017,07,15,07,26,14.60
2017,07,15,07,27,14.60
2017,07,15,07,28,14.70
2017,07,15,07,29,14.80
2017,07,15,07,30,14.90
2017,07,15,07,31,14.90
2017,07,15,07,32,15.00
2017,07,15,07,33,15.00
2017,07,15,07,34,15.10
2017,07,15,07,35,15.10
2017,07,15,07,36,15.10
2017,07,15,07,37,15.10
2017,07,15,07,38,15.20
2017,07,15,07,39,15.20
2017,07,15,07,40,15.20
2017,07,15,07,41,15.30
2017,07,15,07,42,15.30
2017,07,15,07,43,15.40
2017,07,15,07,44,15.40
2017,07,15,07,45,15.50
2017,07,15,07,46,15.50
2017,07,15,07,47,15.60
2017,07,15,07,48,15.70
2017,07,15,07,49,15.70
2017,07,15,07,50,15.80
2017,07,15,07,51,15.90
2017,07,15,07,52,15.90
2017,07,15,07,53,16.00
2017,07,15,07,54,16.00
2017,07,15,07,55,16.10
2017,07,15,07,56,16.20
2017,07,15,07,57,16.30
2017,07,15,07,58,16.40
2017,07,15,07,59,16.50
2017,07,15,08,00,16.50
2017,07,15,08,01,16.60
2017,07,15,08,02,16.70
2017,07,15,08,03,16.70
2017,07,15,08,04,16.60
2017,07,15,08,05,16.50
2017,07,15,08,06,16.50
2017,07,15,08,07,16.50
2017,07,15,08,08,16.50
2017,07,15,08,09,16.50
2017,07,15,08,10,16.50
2017,07,15,08,11,16.60
2017,07,15,08,12,16.60
2017,07,15,08,13,16.70
2017,07,15,08,14,16.80
2017,07,15,08,15,16.80
2017,07,15,08,16,16.90
2017,07,15,08,17,17.00
2017,07,15,08,18,17.10
2017,07,15,08,19,17.10
2017,07,15,08,20,17.20
2017,07,15,08,21,17.20
2017,07,15,08,22,17.30
2017,07,15,08,23,17.30
2017,07,15,08,24,17.30
2017,07,15,08,25,17.30
2017,07,15,08,26,17.30
2017,07,15,08,27,17.40
2017,07,15,08,28,17.40
2017,07,15,08,29,17.40
2017,07,15,08,30,17.40
2017,07,15,08,31,17.40
2017,07,15,08,32,17.30
2017,07,15,08,33,17.30
2017,07,15,08,34,17.30
2017,07,15,08,35,17.30
2017,07,15,08,36,17.30
2017,07,15,08,37,17.30
2017,07,15,08,38,17.30
2017,07,15,08,39,17.30
2017,07,15,08,40,17.30
2017,07,15,08,41,17.40
2017,07,15,08,42,17.40
2017,07,15,08,43,17.50
2017,07,15,08,44,17.50
2017,07,15,08,45,17.60
2017,07,15,08,46,17.60
2017,07,15,08,47,17.60
2017,07,15,08,48,17.60
2017,07,15,08,49,17.60
2017,07,15,08,50,17.70
2017,07,15,08,51,17.70
2017,07,15,08,52,17.70
2017,07,15,08,53,17.70
2017,07,15,08,54,17.80
2017,07,15,08,55,17.80
2017,07,15,08,56,17.80
2017,07,15,08,57,17.90
2017,07,15,08,58,17.90
2017,07,15,08,59,17.90
2017,07,15,09,00,18.00
2017,07,15,09,01,18.10
2017,07,15,09,02,18.10
2017,07,15,09,03,18.10
2017,07,15,09,04,18.20
2017,07,15,09,05,18.20
2017,07,15,09,06,18.10
2017,07,15,09,07,18.10
2017,07,15,09,08,18.10
2017,07,15,09,09,18.10
2017,07,15,09,10,18.10
2017,07,15,09,11,18.10
2017,07,15,09,12,18.00
2017,07,15,09,13,18.00
2017,07,15,09,14,18.00
2017,07,15,09,15,18.00
2017,07,15,09,16,18.10
2017,07,15,09,17,18.10
2017,07,15,09,18,18.10
2017,07,15,09,19,18.20
2017,07,15,09,20,18.20
2017,07,15,09,21,18.20
2017,07,15,09,22,18.10
2017,07,15,09,23,18.10
2017,07,15,09,24,18.10
2017,07,15,09,25,18.10
2017,07,15,09,26,18.10
2017,07,15,09,27,18.00
2017,07,15,09,28,18.00
2017,07,15,09,29,18.00
2017,07,15,09,30,18.00
2017,07,15,09,31,17.90
2017,07,15,09,32,17.90
2017,07,15,09,33,17.90
2017,07,15,09,34,18.00
2017,07,15,09,35,18.00
2017,07,15,09,36,18.00
2017,07,15,09,37,17.90
2017,07,15,09,38,17.90
2017,07,15,09,39,17.90
2017,07,15,09,40,17.90
2017,07,15,09,41,17.90
2017,07,15,09,42,17.90
2017,07,15,09,43,17.90
2017,07,15,09,44,18.00
2017,07,15,09,45,18.10
2017,07,15,09,46,18.10
2017,07,15,09,47,18.20
2017,07,15,09,48,18.20
2017,07,15,09,49,18.20
2017,07,15,09,50,18.30
2017,07,15,09,51,18.40
2017,07,15,09,52,18.40
2017,07,15,09,53,18.40
2017,07,15,09,54,18.50
2017,07,15,09,55,18.50
2017,07,15,09,56,18.60
2017,07,15,09,57,18.60
2017,07,15,09,58,18.70
2017,07,15,09,59,18.70
2017,07,15,10,00,18.80
2017,07,15,10,01,18.80
2017,07,15,10,02,18.80
2017,07,15,10,03,18.80
2017,07,15,10,04,18.80
2017,07,15,10,05,18.80
2017,07,15,10,06,18.80
2017,07,15,10,07,18.80
2017,07,15,10,08,18.80
2017,07,15,10,09,18.80
2017,07,15,10,10,18.70
2017,07,15,10,11,18.70
2017,07,15,10,12,18.70
2017,07,15,10,13,18.70
2017,07,15,10,14,18.70
2017,07,15,10,15,18.70
2017,07,15,10,16,18.70
2017,07,15,10,17,18.70
2017,07,15,10,18,18.70
2017,07,15,10,19,18.80
2017,07,15,10,20,18.80
2017,07,15,10,21,18.80
2017,07,15,10,22,18.80
2017,07,15,10,23,18.80
2017,07,15,10,24,18.90
2017,07,15,10,25,18.90
2017,07,15,10,26,18.90
2017,07,15,10,27,18.90
2017,07,15,10,28,19.00
2017,07,15,10,29,19.00
2017,07,15,10,30,19.10
2017,07,15,10,31,19.10
2017,07,15,10,32,19.20
2017,07,15,10,33,19.20
2017,07,15,10,34,19.30
2017,07,15,10,35,19.30
2017,07,15,10,36,19.20
2017,07,15,10,37,19.20
2017,07,15,10,38,19.20
2017,07,15,10,39,19.20
2017,07,15,10,40,19.20
2017,07,15,10,41,19.20
2017,07,15,10,42,19.20
2017,07,15,10,43,19.20
2017,07,15,10,44,19.20
2017,07,15,10,45,19.20
2017,07,15,10,46,19.20
2017,07,15,10,47,19.20
2017,07,15,10,48,19.30
2017,07,15,10,49,19.30
2017,07,15,10,50,19.30
2017,07,15,10,51,19.30
2017,07,15,10,52,19.30
2017,07,15,10,53,19.30
2017,07,15,10,54,19.30
2017,07,15,10,55,19.30
2017,07,15,10,56,19.30
2017,07,15,10,57,19.30
2017,07,15,10,58,19.30
2017,07,15,10,59,19.30
2017,07,15,11,00,19.40
2017,07,15,11,01,19.50
2017,07,15,11,02,19.50
2017,07,15,11,03,19.50
2017,07,15,11,04,19.50
2017,07,15,11,05,19.50
2017,07,15,11,06,19.50
2017,07,15,11,07,19.50
2017,07,15,11,08,19.50
2017,07,15,11,09,19.40
2017,07,15,11,10,19.40
2017,07,15,11,11,19.40
2017,07,15,11,12,19.40
2017,07,15,11,13,19.50
2017,07,15,11,14,19.60
2017,07,15,11,15,19.70
2017,07,15,11,16,19.70
2017,07,15,11,17,19.70
2017,07,15,11,18,19.80
2017,07,15,11,19,19.90
2017,07,15,11,20,20.00
2017,07,15,11,21,20.10
2017,07,15,11,22,20.30
2017,07,15,11,23,20.30
2017,07,15,11,24,20.30
2017,07,15,11,25,20.40
2017,07,15,11,26,20.50
2017,07,15,11,27,20.50
2017,07,15,11,28,20.50
2017,07,15,11,29,20.50
2017,07,15,11,30,20.40
2017,07,15,11,31,20.40
2017,07,15,11,32,20.50
2017,07,15,11,33,20.40
2017,07,15,11,34,20.40
2017,07,15,11,35,20.30
2017,07,15,11,36,20.30
2017,07,15,11,37,20.30
2017,07,15,11,38,20.40
2017,07,15,11,39,20.40
2017,07,15,11,40,20.50
2017,07,15,11,41,20.50
2017,07,15,11,42,20.50
2017,07,15,11,43,20.60
2017,07,15,11,44,20.70
2017,07,15,11,45,20.80
2017,07,15,11,46,20.90
2017,07,15,11,47,21.10
2017,07,15,11,48,21.20
2017,07,15,11,49,21.30
2017,07,15,11,50,21.30
2017,07,15,11,51,21.30
2017,07,15,11,52,21.30
2017,07,15,11,53,21.30
2017,07,15,11,54,21.30
2017,07,15,11,55,21.40
2017,07,15,11,56,21.40
2017,07,15,11,57,21.40
2017,07,15,11,58,21.40
2017,07,15,11,59,21.40
2017,07,15,12,00,21.40
2017,07,15,12,01,21.50
2017,07,15,12,02,21.60
2017,07,15,12,03,21.60
2017,07,15,12,04,21.60
2017,07,15,12,05,21.60
2017,07,15,12,06,21.60
2017,07,15,12,07,21.60
2017,07,15,12,08,21.50
2017,07,15,12,09,21.60
2017,07,15,12,10,21.60
2017,07,15,12,11,21.60
2017,07,15,12,12,21.60
2017,07,15,12,13,21.60
2017,07,15,12,14,21.50
2017,07,15,12,15,21.50
2017,07,15,12,16,21.40
2017,07,15,12,17,21.40
2017,07,15,12,18,21.50
2017,07,15,12,19,21.50
2017,07,15,12,20,21.60
2017,07,15,12,21,21.60
2017,07,15,12,22,21.60
2017,07,15,12,23,21.60
2017,07,15,12,24,21.60
2017,07,15,12,25,21.70
2017,07,15,12,26,21.70
2017,07,15,12,27,21.80
2017,07,15,12,28,21.80
2017,07,15,12,29,21.70
2017,07,15,12,30,21.60
2017,07,15,12,31,21.50
2017,07,15,12,32,21.50
2017,07,15,12,33,21.50
2017,07,15,12,34,21.50
2017,07,15,12,35,21.50
2017,07,15,12,36,21.50
2017,07,15,12,37,21.50
2017,07,15,12,38,21.50
2017,07,15,12,39,21.60
2017,07,15,12,40,21.60
2017,07,15,12,41,21.60
2017,07,15,12,42,21.60
2017,07,15,12,43,21.60
2017,07,15,12,44,21.60
2017,07,15,12,45,21.60
2017,07,15,12,46,21.60
2017,07,15,12,47,21.70
2017,07,15,12,48,21.80
2017,07,15,12,49,21.80
2017,07,15,12,50,21.80
2017,07,15,12,51,21.80
2017,07,15,12,52,21.80
2017,07,15,12,53,21.80
2017,07,15,12,54,21.80
2017,07,15,12,55,21.80
2017,07,15,12,56,21.90
2017,07,15,12,57,21.90
2017,07,15,12,58,21.80
2017,07,15,12,59,21.80
2017,07,15,13,00,21.80
2017,07,15,13,01,21.80
2017,07,15,13,02,21.70
2017,07,15,13,03,21.80
2017,07,15,13,04,22.00
2017,07,15,13,05,22.10
2017,07,15,13,06,22.10
2017,07,15,13,07,22.00
2017,07,15,13,08,22.00
2017,07,15,13,09,21.90
2017,07,15,13,10,21.90
2017,07,15,13,11,21.80
2017,07,15,13,12,21.70
2017,07,15,13,13,21.80
2017,07,15,13,14,21.80
2017,07,15,13,15,21.80
2017,07,15,13,16,21.90
2017,07,15,13,17,21.80
2017,07,15,13,18,21.70
2017,07,15,13,19,21.70
2017,07,15,13,20,21.70
2017,07,15,13,21,21.70
2017,07,15,13,22,21.70
2017,07,15,13,23,21.80
2017,07,15,13,24,21.80
2017,07,15,13,25,21.80
2017,07,15,13,26,21.80
2017,07,15,13,27,21.80
2017,07,15,13,28,21.70
2017,07,15,13,29,21.60
2017,07,15,13,30,21.60
2017,07,15,13,31,21.50
2017,07,15,13,32,21.40
2017,07,15,13,33,21.40
2017,07,15,13,34,21.40
2017,07,15,13,35,21.40
2017,07,15,13,36,21.50
2017,07,15,13,37,21.50
2017,07,15,13,38,21.50
2017,07,15,13,39,21.50
2017,07,15,13,40,21.40
2017,07,15,13,41,21.30
2017,07,15,13,42,21.30
2017,07,15,13,43,21.30
2017,07,15,13,44,21.30
2017,07,15,13,45,21.30
2017,07,15,13,46,21.30
2017,07,15,13,47,21.20
2017,07,15,13,48,21.20
2017,07,15,13,49,21.10
2017,07,15,13,50,20.90
2017,07,15,13,51,20.80
2017,07,15,13,52,20.80
2017,07,15,13,53,20.70
2017,07,15,13,54,20.70
2017,07,15,13,55,20.80
2017,07,15,13,56,20.80
2017,07,15,13,57,20.90
2017,07,15,13,58,21.00
2017,07,15,13,59,21.10
2017,07,15,14,00,21.10
2017,07,15,14,01,21.00
2017,07,15,14,02,21.00
2017,07,15,14,03,21.00
2017,07,15,14,04,20.90
2017,07,15,14,05,20.90
2017,07,15,14,06,20.90
2017,07,15,14,07,20.80
2017,07,15,14,08,20.80
2017,07,15,14,09,20.90
2017,07,15,14,10,20.90
2017,07,15,14,11,20.90
2017,07,15,14,12,20.80
2017,07,15,14,13,20.80
2017,07,15,14,14,20.80
2017,07,15,14,15,20.80
2017,07,15,14,16,20.80
2017,07,15,14,17,20.90
2017,07,15,14,18,21.00
2017,07,15,14,19,21.10
2017,07,15,14,20,21.10
2017,07,15,14,21,21.20
2017,07,15,14,22,21.30
2017,07,15,14,23,21.40
2017,07,15,14,24,21.40
2017,07,15,14,25,21.50
2017,07,15,14,26,21.50
2017,07,15,14,27,21.60
2017,07,15,14,28,21.60
2017,07,15,14,29,21.70
2017,07,15,14,30,21.70
2017,07,15,14,31,21.70
2017,07,15,14,32,21.70
2017,07,15,14,33,21.70
2017,07,15,14,34,21.70
2017,07,15,14,35,21.70
2017,07,15,14,36,21.80
2017,07,15,14,37,21.90
2017,07,15,14,38,22.00
2017,07,15,14,39,22.10
2017,07,15,14,40,22.10
2017,07,15,14,41,22.00
2017,07,15,14,42,22.00
2017,07,15,14,43,21.90
2017,07,15,14,44,21.90
2017,07,15,14,45,21.90
2017,07,15,14,46,21.90
2017,07,15,14,47,21.90
2017,07,15,14,48,21.90
2017,07,15,14,49,21.90
2017,07,15,14,50,21.90
2017,07,15,14,51,21.90
2017,07,15,14,52,21.90
2017,07,15,14,53,21.90
2017,07,15,14,54,21.90
2017,07,15,14,55,21.90
2017,07,15,14,56,21.80
2017,07,15,14,57,21.80
2017,07,15,14,58,21.70
2017,07,15,14,59,21.60
2017,07,15,15,00,21.50
2017,07,15,15,01,21.40
2017,07,15,15,02,21.40
2017,07,15,15,03,21.40
2017,07,15,15,04,21.40
2017,07,15,15,05,21.40
2017,07,15,15,06,21.30
2017,07,15,15,07,21.30
2017,07,15,15,08,21.30
2017,07,15,15,09,21.20
2017,07,15,15,10,21.10
2017,07,15,15,11,21.10
2017,07,15,15,12,21.10
2017,07,15,15,13,21.10
2017,07,15,15,14,21.00
2017,07,15,15,15,20.90
2017,07,15,15,16,20.90
2017,07,15,15,17,20.90
2017,07,15,15,18,20.90
2017,07,15,15,19,20.80
2017,07,15,15,20,20.80
2017,07,15,15,21,20.90
2017,07,15,15,22,20.90
2017,07,15,15,23,21.00
2017,07,15,15,24,21.00
2017,07,15,15,25,21.10
2017,07,15,15,26,21.10
2017,07,15,15,27,21.10
2017,07,15,15,28,21.20
2017,07,15,15,29,21.30
2017,07,15,15,30,21.40
2017,07,15,15,31,21.50
2017,07,15,15,32,21.60
2017,07,15,15,33,21.60
2017,07,15,15,34,21.70
2017,07,15,15,35,21.60
2017,07,15,15,36,21.50
2017,07,15,15,37,21.40
2017,07,15,15,38,21.30
2017,07,15,15,39,21.30
2017,07,15,15,40,21.20
2017,07,15,15,41,21.20
2017,07,15,15,42,21.20
2017,07,15,15,43,21.10
2017,07,15,15,44,21.00
2017,07,15,15,45,21.00
2017,07,15,15,46,20.90
2017,07,15,15,47,20.80
2017,07,15,15,48,20.80
2017,07,15,15,49,20.70
2017,07,15,15,50,20.70
2017,07,15,15,51,20.70
2017,07,15,15,52,20.60
2017,07,15,15,53,20.50
2017,07,15,15,54,20.50
2017,07,15,15,55,20.40
2017,07,15,15,56,20.40
2017,07,15,15,57,20.40
2017,07,15,15,58,20.40
2017,07,15,15,59,20.50
2017,07,15,16,00,20.50
2017,07,15,16,01,20.50
2017,07,15,16,02,20.60
2017,07,15,16,03,20.60
2017,07,15,16,04,20.60
2017,07,15,16,05,20.60
2017,07,15,16,06,20.60
2017,07,15,16,07,20.60
2017,07,15,16,08,20.60
2017,07,15,16,09,20.70
2017,07,15,16,10,20.80
2017,07,15,16,11,20.80
2017,07,15,16,12,20.90
2017,07,15,16,13,21.00
2017,07,15,16,14,21.10
2017,07,15,16,15,21.10
2017,07,15,16,16,21.20
2017,07,15,16,17,21.30
2017,07,15,16,18,21.30
2017,07,15,16,19,21.30
2017,07,15,16,20,21.30
2017,07,15,16,21,21.30
2017,07,15,16,22,21.40
2017,07,15,16,23,21.40
2017,07,15,16,24,21.40
2017,07,15,16,25,21.40
2017,07,15,16,26,21.40
2017,07,15,16,27,21.40
2017,07,15,16,28,21.40
2017,07,15,16,29,21.40
2017,07,15,16,30,21.40
2017,07,15,16,31,21.40
2017,07,15,16,32,21.30
2017,07,15,16,33,21.20
2017,07,15,16,34,21.20
2017,07,15,16,35,21.20
2017,07,15,16,36,21.10
2017,07,15,16,37,21.10
2017,07,15,16,38,21.10
2017,07,15,16,39,21.00
2017,07,15,16,40,20.90
2017,07,15,16,41,20.80
2017,07,15,16,42,20.70
2017,07,15,16,43,20.60
2017,07,15,16,44,20.50
2017,07,15,16,45,20.50
2017,07,15,16,46,20.40
2017,07,15,16,47,20.40
2017,07,15,16,48,20.40
2017,07,15,16,49,20.40
2017,07,15,16,50,20.40
2017,07,15,16,51,20.40
2017,07,15,16,52,20.40
2017,07,15,16,53,20.50
2017,07,15,16,54,20.50
2017,07,15,16,55,20.60
2017,07,15,16,56,20.60
2017,07,15,16,57,20.60
2017,07,15,16,58,20.70
2017,07,15,16,59,20.70
2017,07,15,17,00,20.80
2017,07,15,17,01,20.80
2017,07,15,17,02,20.80
2017,07,15,17,03,20.80
2017,07,15,17,04,20.90
2017,07,15,17,05,20.90
2017,07,15,17,06,21.00
2017,07,15,17,07,21.00
2017,07,15,17,08,21.10
2017,07,15,17,09,21.20
2017,07,15,17,10,21.30
2017,07,15,17,11,21.40
2017,07,15,17,12,21.40
2017,07,15,17,13,21.50
2017,07,15,17,14,21.50
2017,07,15,17,15,21.40
2017,07,15,17,16,21.40
2017,07,15,17,17,21.30
2017,07,15,17,18,21.30
2017,07,15,17,19,21.30